Tekamah, NE

4:10 AM CST on December 16, 2017 (GMT -0600)
Tekamah

Weather History for KTQE - July, 2013

Change the Weather History Date:

Friday, July 12, 2013

  Actual Average Record
Temperature  
Mean Temperature 78 °F -  
Max Temperature 91 °F 89 °F 103 °F (1954)
Min Temperature 66 °F 66 °F 53 °F (1975)
Cooling Degree Days 14    
Growing Degree Days 28 (Base 50)    
Moisture  
Dew Point 65 °F    
Average Humidity 63    
Maximum Humidity 79    
Minimum Humidity 50    
Precipitation  
Precipitation 0.00 in - - ()
Sea Level Pressure  
Sea Level Pressure 29.92 in    
Wind  
Wind Speed 11 mph (SE)    
Max Wind Speed 18 mph    
Max Gust Speed 25 mph    
Visibility 7 miles    
Events      
Averages and records for this station are not official NWS values.
T = Trace of Precipitation, MM = Missing Value Source: NWS Daily Summary

Daily Weather History Graph

Daily Weather History Graph

Search for Another Location

Airport or City:

Trip Planner

Search our weather history database for the weather conditions in past years. The results will help you decide how hot, cold, wet, or windy it might be!

Date:

Astronomy

Jul. 12, 2013 Rise Set
Actual Time 6:01 AM CDT 8:59 PM CDT
Civil Twilight 5:27 AM CDT 9:32 PM CDT
Nautical Twilight 4:45 AM CDT 10:14 PM CDT
Astronomical Twilight 3:55 AM CDT 11:04 PM CDT
Moon 10:23 AM CDT (7/12) 11:05 PM CDT (7/12)
Length of Visible Light 16h 04m
Length of Day
14h 58m
Waxing Crescent, 17% of the Moon is Illuminated
Jul 12
Waxing Crescent
Jul 15
First Quarter
Jul 22
Full
Jul 29
Last Quarter
Aug 6
New

Hourly Weather History & Observations

Time (CDT) Temp. Heat Index Dew Point Humidity Pressure Visibility Wind Dir Wind Speed Gust Speed Precip Events Conditions
12:54 AM 70.0 °F - 62.1 °F 76% 29.96 in 7.0 mi SE 6.9 mph - N/A   Clear
1:54 AM 69.1 °F - 61.0 °F 75% 29.95 in 7.0 mi SE 8.1 mph - N/A   Clear
2:54 AM 68.0 °F - 61.0 °F 78% 29.95 in 7.0 mi SE 6.9 mph - N/A   Clear
3:54 AM 66.9 °F - 60.1 °F 79% 29.94 in 7.0 mi SE 8.1 mph - N/A   Clear
4:54 AM 66.9 °F - 60.1 °F 79% 29.95 in 7.0 mi SSE 6.9 mph - N/A   Clear
5:54 AM 66.0 °F - 59.0 °F 78% 29.95 in 7.0 mi SE 8.1 mph - N/A   Clear
6:54 AM 68.0 °F - 60.1 °F 76% 29.95 in 5.0 mi SE 9.2 mph - N/A   Haze
7:54 AM 71.1 °F - 62.1 °F 73% 29.96 in 6.0 mi SSE 6.9 mph - N/A   Haze
8:54 AM 75.9 °F - 62.1 °F 62% 29.96 in 6.0 mi SSE 16.1 mph 21.9 mph N/A   Haze
9:54 AM 78.1 °F - 64.0 °F 62% 29.96 in 6.0 mi SSE 13.8 mph - N/A   Haze
10:54 AM 79.0 °F - 64.9 °F 62% 29.95 in 6.0 mi SSE 13.8 mph 19.6 mph N/A   Haze
11:54 AM 82.9 °F 84.6 °F 64.9 °F 54% 29.93 in 6.0 mi SE 16.1 mph 24.2 mph N/A   Haze
12:54 PM 86.0 °F 88.8 °F 66.9 °F 53% 29.92 in 7.0 mi SSE 15.0 mph 24.2 mph N/A   Clear
1:54 PM 89.1 °F 93.7 °F 69.1 °F 52% 29.91 in 7.0 mi SE 16.1 mph 24.2 mph N/A   Clear
2:54 PM 89.1 °F 93.7 °F 69.1 °F 52% 29.89 in 6.0 mi SE 17.3 mph 25.3 mph N/A   Haze
3:54 PM 90.0 °F 95.4 °F 70.0 °F 52% 29.88 in 6.0 mi SE 18.4 mph 25.3 mph N/A   Haze
4:54 PM 91.0 °F 96.6 °F 70.0 °F 50% 29.88 in 6.0 mi SSE 17.3 mph 25.3 mph N/A   Haze
5:54 PM 90.0 °F 96.4 °F 71.1 °F 54% 29.87 in 6.0 mi SSE 16.1 mph 25.3 mph N/A   Haze
6:54 PM 88.0 °F 92.9 °F 70.0 °F 55% 29.86 in 6.0 mi SSE 17.3 mph 24.2 mph N/A   Haze
7:54 PM 86.0 °F 90.7 °F 70.0 °F 59% 29.87 in 6.0 mi SSE 15.0 mph 20.7 mph N/A   Haze
8:54 PM 82.9 °F 85.8 °F 68.0 °F 60% 29.87 in 7.0 mi SE 12.7 mph - N/A   Clear
9:54 PM 81.0 °F 83.3 °F 66.9 °F 62% 29.87 in 8.0 mi SE 12.7 mph - N/A   Clear
10:54 PM 80.1 °F 81.9 °F 64.9 °F 60% 29.89 in 8.0 mi SSE 9.2 mph - N/A   Partly Cloudy
11:54 PM 79.0 °F - 64.0 °F 60% 29.89 in 8.0 mi SSE 10.4 mph - N/A   Partly Cloudy